,,PA_Meas_PMT16A,,PR_Meas_QMR101_102,,RH_Meas_QMH101,,SR_Meas_QMS101,,TA_Meas_QMH101,,GenWind,,GenWind,
time,status,PA,status,PR,status,RH,status,SR,status,TA,status,DirAvg,status,SpdAvg,
2011-05-21, 00:00:04,VALID,918.332,VALID,0,VALID,97.534,VALID,0,VALID,19.2348,VALID,138,VALID,0.281641,
2011-05-21, 00:01:04,VALID,918.307,VALID,0,VALID,97.5416,VALID,0,VALID,19.2348,VALID,138,VALID,0.379297,
2011-05-21, 00:02:04,VALID,918.292,VALID,0,VALID,97.5492,VALID,0,VALID,19.1944,VALID,138,VALID,0.542969,
2011-05-21, 00:03:04,VALID,918.266,VALID,0,VALID,97.5264,VALID,0,VALID,19.1944,VALID,174,VALID,0.820703,
2011-05-21, 00:04:04,VALID,918.224,VALID,0,VALID,97.5416,VALID,0,VALID,19.1749,VALID,174,VALID,0.899609,
2011-05-21, 00:05:04,VALID,918.2,VALID,0,VALID,97.534,VALID,0,VALID,19.1958,VALID,174,VALID,0.938672,
2011-05-21, 00:06:04,VALID,918.195,VALID,0,VALID,97.534,VALID,0,VALID,19.1763,VALID,174,VALID,0.896875,
2011-05-21, 00:07:04,VALID,918.159,VALID,0,VALID,97.5416,VALID,0,VALID,19.1359,VALID,174,VALID,0.950781,
2011-05-21, 00:08:04,VALID,918.126,VALID,0,VALID,97.5187,VALID,0,VALID,19.1164,VALID,174,VALID,0.976563,
2011-05-21, 00:09:04,VALID,918.111,VALID,0,VALID,97.5721,VALID,0,VALID,19.1164,VALID,174,VALID,0.45625,
2011-05-21, 00:10:04,VALID,918.092,VALID,0,VALID,97.5492,VALID,0,VALID,19.1164,VALID,174,VALID,0.729297,
2011-05-21, 00:11:04,VALID,918.046,VALID,0,VALID,97.534,VALID,0,VALID,19.1164,VALID,174,VALID,0.804688,
2011-05-21, 00:12:04,VALID,918.031,VALID,0,VALID,97.5569,VALID,0,VALID,19.1373,VALID,174,VALID,1.10117,
2011-05-21, 00:13:04,VALID,918.042,VALID,0,VALID,97.5492,VALID,0,VALID,19.0969,VALID,174,VALID,0.915625,
2011-05-21, 00:14:04,VALID,918.022,VALID,0,VALID,97.5492,VALID,0,VALID,19.1164,VALID,161,VALID,0.808203,
2011-05-21, 00:15:04,VALID,918.014,VALID,0,VALID,97.534,VALID,0,VALID,19.1178,VALID,155,VALID,0.4375,
2011-05-21, 00:16:04,VALID,917.983,VALID,0,VALID,97.5416,VALID,0,VALID,19.0579,VALID,155,VALID,0.672656,
2011-05-21, 00:17:04,VALID,917.98,VALID,0,VALID,97.534,VALID,0,VALID,19.0398,VALID,155,VALID,0.598437,
2011-05-21, 00:18:04,VALID,917.958,VALID,0,VALID,97.534,VALID,0,VALID,19.0189,VALID,145,VALID,0.812891,
2011-05-21, 00:19:04,VALID,917.932,VALID,0,VALID,97.5492,VALID,0,VALID,19.0593,VALID,118,VALID,0.910937,
2011-05-21, 00:20:04,VALID,917.934,VALID,0,VALID,97.5492,VALID,0,VALID,19.0593,VALID,138,VALID,0.714844,
2011-05-21, 00:21:04,VALID,917.897,VALID,0,VALID,97.5416,VALID,0,VALID,19.0398,VALID,132,VALID,0.647656,
2011-05-21, 00:22:04,VALID,917.873,VALID,0,VALID,97.5416,VALID,0,VALID,19.0593,VALID,132,VALID,1.00859,
2011-05-21, 00:23:04,VALID,917.904,VALID,0,VALID,97.5569,VALID,0,VALID,19.0384,VALID,132,VALID,1.03125,
2011-05-21, 00:24:04,VALID,917.872,VALID,0,VALID,97.5569,VALID,0.107441,VALID,19.0384,VALID,132,VALID,0.882031,
2011-05-21, 00:25:04,VALID,917.868,VALID,0,VALID,97.5645,VALID,0,VALID,19.0203,VALID,132,VALID,1.16562,
2011-05-21, 00:26:04,VALID,917.849,VALID,0,VALID,97.5569,VALID,0,VALID,19.0203,VALID,132,VALID,0.919922,
2011-05-21, 00:27:04,VALID,917.86,VALID,0,VALID,97.5416,VALID,0,VALID,19.0008,VALID,125,VALID,1.22266,
2011-05-21, 00:28:04,VALID,917.841,VALID,0,VALID,97.5645,VALID,0,VALID,18.9604,VALID,128,VALID,0.680078,
2011-05-21, 00:29:04,VALID,917.829,VALID,0,VALID,97.5645,VALID,0,VALID,18.9409,VALID,125,VALID,1.29375,
2011-05-21, 00:30:04,VALID,917.838,VALID,0,VALID,97.5645,VALID,0,VALID,18.9424,VALID,136,VALID,1.36367,
2011-05-21, 00:31:04,VALID,917.775,VALID,0,VALID,97.5873,VALID,0,VALID,18.9424,VALID,136,VALID,0.904297,
2011-05-21, 00:32:04,VALID,917.794,VALID,0,VALID,97.5873,VALID,0,VALID,18.9229,VALID,136,VALID,0.633203,
2011-05-21, 00:33:04,VALID,917.765,VALID,0,VALID,97.5873,VALID,0,VALID,18.8824,VALID,135,VALID,0.962891,
2011-05-21, 00:34:04,VALID,917.752,VALID,0,VALID,97.5797,VALID,0,VALID,18.9019,VALID,110,VALID,0.928125,
2011-05-21, 00:35:04,VALID,917.731,VALID,0,VALID,97.5797,VALID,0,VALID,18.9229,VALID,110,VALID,0.880078,
2011-05-21, 00:36:04,VALID,917.697,VALID,0,VALID,97.6026,VALID,0,VALID,18.8839,VALID,110,VALID,0.733984,
2011-05-21, 00:37:04,VALID,917.677,VALID,0,VALID,97.6102,VALID,0,VALID,18.8629,VALID,110,VALID,0.864453,
2011-05-21, 00:38:04,VALID,917.676,VALID,0,VALID,97.6102,VALID,0,VALID,18.9034,VALID,110,VALID,0.621484,
2011-05-21, 00:39:04,VALID,917.659,VALID,0,VALID,97.6026,VALID,0,VALID,18.9034,VALID,110,VALID,0.830469,
2011-05-21, 00:40:04,VALID,917.635,VALID,0,VALID,97.6102,VALID,0,VALID,18.8824,VALID,110,VALID,0.776953,
2011-05-21, 00:41:04,VALID,917.622,VALID,0,VALID,97.595,VALID,0,VALID,18.8839,VALID,110,VALID,0.864844,
2011-05-21, 00:42:04,VALID,917.637,VALID,0,VALID,97.6255,VALID,0,VALID,18.9034,VALID,110,VALID,0.714453,
2011-05-21, 00:43:04,VALID,917.599,VALID,0,VALID,97.6178,VALID,0,VALID,18.9034,VALID,110,VALID,0.823828,
2011-05-21, 00:44:04,VALID,917.591,VALID,0,VALID,97.6102,VALID,0,VALID,18.9034,VALID,110,VALID,0.818359,
2011-05-21, 00:45:04,VALID,917.573,VALID,0,VALID,97.6331,VALID,0,VALID,18.9229,VALID,110,VALID,1.16797,
2011-05-21, 00:46:04,VALID,917.563,VALID,0,VALID,97.6331,VALID,0,VALID,18.9214,VALID,121,VALID,0.728125,
2011-05-21, 00:47:04,VALID,917.546,VALID,0,VALID,97.6407,VALID,0,VALID,18.9424,VALID,121,VALID,0.972266,
2011-05-21, 00:48:04,VALID,917.55,VALID,0,VALID,97.6331,VALID,0,VALID,18.9619,VALID,121,VALID,0.865625,
2011-05-21, 00:49:04,VALID,917.529,VALID,0,VALID,97.6331,VALID,0,VALID,18.9814,VALID,121,VALID,0.595703,
2011-05-21, 00:50:04,VALID,917.496,VALID,0,VALID,97.6178,VALID,0,VALID,19.0203,VALID,121,VALID,0.825391,
2011-05-21, 00:51:04,VALID,917.469,VALID,0,VALID,97.6331,VALID,0,VALID,19.0203,VALID,121,VALID,0.851563,
2011-05-21, 00:52:04,VALID,917.426,VALID,0,VALID,97.6331,VALID,0,VALID,19.0398,VALID,146,VALID,1.08125,
2011-05-21, 00:53:04,VALID,917.442,VALID,0,VALID,97.6331,VALID,0,VALID,19.0593,VALID,145,VALID,0.660156,
2011-05-21, 00:54:04,VALID,917.411,VALID,0,VALID,97.6331,VALID,0,VALID,19.0593,VALID,145,VALID,0.4375,
2011-05-21, 00:55:04,VALID,917.403,VALID,0,VALID,97.6255,VALID,0,VALID,19.0593,VALID,145,VALID,0.603516,
2011-05-21, 00:56:04,VALID,917.405,VALID,0,VALID,97.6178,VALID,0,VALID,19.0593,VALID,145,VALID,0.43125,
2011-05-21, 00:57:04,VALID,917.372,VALID,0,VALID,97.6102,VALID,0,VALID,19.0593,VALID,145,VALID,0.793359,
2011-05-21, 00:58:04,VALID,917.382,VALID,0,VALID,97.6178,VALID,0,VALID,19.0398,VALID,145,VALID,0.622266,
2011-05-21, 00:59:04,VALID,917.372,VALID,0,VALID,97.6331,VALID,0.107441,VALID,19.0398,VALID,145,VALID,0.257813,
2011-05-21, 01:00:04,VALID,917.347,VALID,0,VALID,97.6331,VALID,0,VALID,19.0398,VALID,145,VALID,0.419141,
2011-05-21, 01:01:04,VALID,917.367,VALID,0,VALID,97.6407,VALID,0,VALID,19.0203,VALID,145,VALID,0.541406,
2011-05-21, 01:02:04,VALID,917.398,VALID,0,VALID,97.6483,VALID,0,VALID,19.0398,VALID,145,VALID,0.743359,
2011-05-21, 01:03:04,VALID,917.381,VALID,0,VALID,97.6178,VALID,0,VALID,19.0398,VALID,144,VALID,0.720703,
2011-05-21, 01:04:04,VALID,917.371,VALID,0,VALID,97.6331,VALID,0,VALID,19.0189,VALID,108,VALID,0.848437,
2011-05-21, 01:05:04,VALID,917.361,VALID,0,VALID,97.6026,VALID,0,VALID,19.0203,VALID,108,VALID,0.678906,
2011-05-21, 01:06:04,VALID,917.33,VALID,0,VALID,97.6331,VALID,0,VALID,19.0203,VALID,108,VALID,0.989062,
2011-05-21, 01:07:04,VALID,917.313,VALID,0,VALID,97.6483,VALID,0,VALID,19.0008,VALID,108,VALID,0.978125,
2011-05-21, 01:08:04,VALID,917.271,VALID,0,VALID,97.6255,VALID,0,VALID,19.0008,VALID,108,VALID,0.948828,
2011-05-21, 01:09:04,VALID,917.237,VALID,0,VALID,97.6407,VALID,0,VALID,19.0413,VALID,108,VALID,1.12539,
2011-05-21, 01:10:04,VALID,917.243,VALID,0,VALID,97.6178,VALID,0,VALID,19.0203,VALID,108,VALID,0.882422,
2011-05-21, 01:11:04,VALID,917.214,VALID,0,VALID,97.6331,VALID,0,VALID,19.0203,VALID,108,VALID,0.937109,
2011-05-21, 01:12:04,VALID,917.223,VALID,0,VALID,97.6255,VALID,0,VALID,19.0203,VALID,108,VALID,0.805078,
2011-05-21, 01:13:04,VALID,917.201,VALID,0,VALID,97.656,VALID,0,VALID,19.0008,VALID,108,VALID,1.07422,
2011-05-21, 01:14:04,VALID,917.191,VALID,0,VALID,97.6407,VALID,0,VALID,18.9619,VALID,108,VALID,1.06484,
2011-05-21, 01:15:04,VALID,917.18,VALID,0,VALID,97.6331,VALID,0,VALID,18.9619,VALID,108,VALID,0.969922,
2011-05-21, 01:16:04,VALID,917.177,VALID,0,VALID,97.6483,VALID,0,VALID,18.9619,VALID,108,VALID,0.958984,
2011-05-21, 01:17:04,VALID,917.185,VALID,0,VALID,97.656,VALID,0,VALID,18.9828,VALID,108,VALID,1.15664,
2011-05-21, 01:18:04,VALID,917.177,VALID,0,VALID,97.6483,VALID,0,VALID,18.9604,VALID,108,VALID,1.16875,
2011-05-21, 01:19:04,VALID,917.162,VALID,0,VALID,97.6483,VALID,0,VALID,18.9799,VALID,108,VALID,0.891016,
2011-05-21, 01:20:04,VALID,917.155,VALID,0,VALID,97.656,VALID,0,VALID,19.0008,VALID,108,VALID,0.741797,
2011-05-21, 01:21:04,VALID,917.163,VALID,0,VALID,97.656,VALID,0,VALID,19.0008,VALID,109,VALID,0.515625,
2011-05-21, 01:22:04,VALID,917.18,VALID,0,VALID,97.656,VALID,0,VALID,19.0008,VALID,108,VALID,0.541406,
2011-05-21, 01:23:04,VALID,917.16,VALID,0,VALID,97.6483,VALID,0,VALID,19.0203,VALID,108,VALID,0.225391,
2011-05-21, 01:24:04,VALID,917.139,VALID,0,VALID,97.656,VALID,0,VALID,19.0398,VALID,108,VALID,0.284375,
2011-05-21, 01:25:04,VALID,917.122,VALID,0,VALID,97.6483,VALID,0,VALID,19.0398,VALID,108,VALID,0.310156,
2011-05-21, 01:26:04,VALID,917.13,VALID,0,VALID,97.6483,VALID,0,VALID,19.0398,VALID,108,VALID,0.440625,
2011-05-21, 01:27:04,VALID,917.093,VALID,0,VALID,97.6636,VALID,0,VALID,19.0203,VALID,109,VALID,0.482422,
2011-05-21, 01:28:04,VALID,917.074,VALID,0,VALID,97.656,VALID,0,VALID,19.0008,VALID,109,VALID,0.503125,
2011-05-21, 01:29:04,VALID,917.105,VALID,0,VALID,97.6636,VALID,0,VALID,18.9814,VALID,109,VALID,0.565625,
2011-05-21, 01:30:04,VALID,917.059,VALID,0,VALID,97.656,VALID,0,VALID,18.9619,VALID,108,VALID,0.555859,
2011-05-21, 01:31:04,VALID,917.063,VALID,0,VALID,97.6483,VALID,0,VALID,18.9424,VALID,108,VALID,0.613672,
2011-05-21, 01:32:04,VALID,917.053,VALID,0,VALID,97.6407,VALID,0,VALID,18.9619,VALID,108,VALID,0.603906,
2011-05-21, 01:33:04,VALID,917.048,VALID,0,VALID,97.6636,VALID,0,VALID,18.9814,VALID,108,VALID,0.299219,
2011-05-21, 01:34:04,VALID,917.068,VALID,0,VALID,97.656,VALID,0,VALID,18.9814,VALID,108,VALID,0.451953,
2011-05-21, 01:35:04,VALID,917.088,VALID,0,VALID,97.656,VALID,0,VALID,18.9619,VALID,108,VALID,0.531641,
2011-05-21, 01:36:04,VALID,917.099,VALID,0,VALID,97.6712,VALID,0,VALID,18.9619,VALID,108,VALID,0.535937,
2011-05-21, 01:37:04,VALID,917.092,VALID,0,VALID,97.6636,VALID,0,VALID,18.9619,VALID,109,VALID,0.337891,
2011-05-21, 01:38:04,VALID,917.125,VALID,0,VALID,97.6636,VALID,0,VALID,18.9214,VALID,108,VALID,0.1875,
2011-05-21, 01:39:04,VALID,917.137,VALID,0,VALID,97.6636,VALID,0,VALID,18.9424,VALID,108,VALID,0,
2011-05-21, 01:40:04,VALID,917.145,VALID,0,VALID,97.6712,VALID,0,VALID,18.9424,VALID,108,VALID,0,
2011-05-21, 01:41:04,VALID,917.132,VALID,0,VALID,97.6865,VALID,0,VALID,18.9424,VALID,108,VALID,0,
2011-05-21, 01:42:04,VALID,917.114,VALID,0,VALID,97.6483,VALID,0,VALID,18.9619,VALID,108,VALID,0.189453,
2011-05-21, 01:43:04,VALID,917.118,VALID,0,VALID,97.656,VALID,0,VALID,18.9424,VALID,108,VALID,0.153125,
2011-05-21, 01:44:04,VALID,917.141,VALID,0,VALID,97.6483,VALID,0,VALID,18.9424,VALID,108,VALID,0.447656,
2011-05-21, 01:45:04,VALID,917.152,VALID,0,VALID,97.6636,VALID,0.107441,VALID,18.9214,VALID,108,VALID,0.620313,
2011-05-21, 01:46:04,VALID,917.137,VALID,0,VALID,97.6636,VALID,0.107441,VALID,18.9214,VALID,108,VALID,0.707422,
2011-05-21, 01:47:04,VALID,917.112,VALID,0,VALID,97.6712,VALID,0.107441,VALID,18.9214,VALID,108,VALID,0.702344,
2011-05-21, 01:48:04,VALID,917.131,VALID,0,VALID,97.6636,VALID,0.107441,VALID,18.9019,VALID,108,VALID,0.570703,
2011-05-21, 01:49:04,VALID,917.108,VALID,0,VALID,97.6407,VALID,0.107441,VALID,18.8824,VALID,108,VALID,0.577734,
2011-05-21, 01:50:04,VALID,917.072,VALID,0,VALID,97.6483,VALID,0.107441,VALID,18.8824,VALID,108,VALID,0.505078,
2011-05-21, 01:51:04,VALID,917.095,VALID,0,VALID,97.6483,VALID,0.107441,VALID,18.8824,VALID,108,VALID,0.646484,
2011-05-21, 01:52:04,VALID,917.042,VALID,0,VALID,97.6712,VALID,0.107441,VALID,18.9019,VALID,108,VALID,0.503516,
2011-05-21, 01:53:04,VALID,917.032,VALID,0,VALID,97.6636,VALID,0,VALID,18.9019,VALID,108,VALID,0.429297,
2011-05-21, 01:54:04,VALID,917.012,VALID,0,VALID,97.6788,VALID,0.107441,VALID,18.9019,VALID,108,VALID,0.372266,
2011-05-21, 01:55:04,VALID,916.97,VALID,0,VALID,97.6712,VALID,0.107441,VALID,18.9019,VALID,108,VALID,0.405859,
2011-05-21, 01:56:04,VALID,916.989,VALID,0,VALID,97.6712,VALID,0,VALID,18.9019,VALID,108,VALID,0.564844,
2011-05-21, 01:57:04,VALID,916.971,VALID,0,VALID,97.6788,VALID,0.107441,VALID,18.9019,VALID,108,VALID,0.555078,
2011-05-21, 01:58:04,VALID,916.95,VALID,0,VALID,97.6712,VALID,0,VALID,18.9019,VALID,108,VALID,0.586719,
2011-05-21, 01:59:04,VALID,916.939,VALID,0,VALID,97.6788,VALID,0,VALID,18.9214,VALID,108,VALID,0.680078,
2011-05-21, 02:00:04,VALID,916.942,VALID,0,VALID,97.656,VALID,0.107441,VALID,18.9229,VALID,108,VALID,0.514844,
2011-05-21, 02:01:04,VALID,916.936,VALID,0,VALID,97.6788,VALID,0,VALID,18.9019,VALID,108,VALID,0.732813,
2011-05-21, 02:02:04,VALID,916.938,VALID,0,VALID,97.6865,VALID,0,VALID,18.9034,VALID,108,VALID,0.491016,
2011-05-21, 02:03:04,VALID,916.908,VALID,0,VALID,97.6865,VALID,0,VALID,18.8824,VALID,108,VALID,0.765625,
2011-05-21, 02:04:04,VALID,916.908,VALID,0,VALID,97.6636,VALID,0.107441,VALID,18.8824,VALID,108,VALID,0.489062,
2011-05-21, 02:05:04,VALID,916.879,VALID,0,VALID,97.6712,VALID,0.107441,VALID,18.8839,VALID,108,VALID,0.340625,
2011-05-21, 02:06:04,VALID,916.881,VALID,0,VALID,97.6865,VALID,0.107441,VALID,18.8629,VALID,108,VALID,0.162891,
2011-05-21, 02:07:04,VALID,916.827,VALID,0,VALID,97.6788,VALID,0,VALID,18.8629,VALID,108,VALID,0.259766,
2011-05-21, 02:08:04,VALID,916.822,VALID,0,VALID,97.6865,VALID,0.107441,VALID,18.8434,VALID,108,VALID,0.460938,
2011-05-21, 02:09:04,VALID,916.819,VALID,0,VALID,97.6941,VALID,0.107441,VALID,18.8629,VALID,108,VALID,0.464453,
2011-05-21, 02:10:04,VALID,916.796,VALID,0,VALID,97.6788,VALID,0,VALID,18.8629,VALID,108,VALID,0.434766,
2011-05-21, 02:11:04,VALID,916.768,VALID,0,VALID,97.6788,VALID,0.107441,VALID,18.8434,VALID,108,VALID,0.515625,
2011-05-21, 02:12:04,VALID,916.753,VALID,0,VALID,97.6788,VALID,0,VALID,18.8839,VALID,108,VALID,0.525391,
2011-05-21, 02:13:04,VALID,916.729,VALID,0,VALID,97.6941,VALID,0,VALID,18.8839,VALID,108,VALID,0.279297,
2011-05-21, 02:14:04,VALID,916.707,VALID,0,VALID,97.7017,VALID,0,VALID,18.8824,VALID,108,VALID,0,
2011-05-21, 02:15:04,VALID,916.738,VALID,0,VALID,97.7093,VALID,0,VALID,18.9034,VALID,108,VALID,0.295312,
2011-05-21, 02:16:04,VALID,916.693,VALID,0,VALID,97.7017,VALID,0,VALID,18.8824,VALID,108,VALID,0.516797,
2011-05-21, 02:17:04,VALID,916.71,VALID,0,VALID,97.7017,VALID,0,VALID,18.9229,VALID,108,VALID,0.198828,
2011-05-21, 02:18:04,VALID,916.706,VALID,0,VALID,97.6941,VALID,0,VALID,18.9229,VALID,108,VALID,0.438281,
2011-05-21, 02:19:04,VALID,916.711,VALID,0,VALID,97.6865,VALID,0,VALID,18.8839,VALID,108,VALID,0.627734,
2011-05-21, 02:20:04,VALID,916.716,VALID,0,VALID,97.6941,VALID,0.107441,VALID,18.8644,VALID,108,VALID,0.788281,
2011-05-21, 02:21:04,VALID,916.693,VALID,0,VALID,97.6941,VALID,0.107441,VALID,18.824,VALID,109,VALID,1.03047,
2011-05-21, 02:22:04,VALID,916.701,VALID,0,VALID,97.7093,VALID,0,VALID,18.8059,VALID,108,VALID,0.887109,
2011-05-21, 02:23:04,VALID,916.682,VALID,0,VALID,97.7017,VALID,0,VALID,18.785,VALID,108,VALID,0.985156,
2011-05-21, 02:24:04,VALID,916.678,VALID,0,VALID,97.7017,VALID,0.107441,VALID,18.8059,VALID,108,VALID,0.882422,
2011-05-21, 02:25:04,VALID,916.656,VALID,0,VALID,97.6788,VALID,0,VALID,18.8059,VALID,108,VALID,1.03047,
2011-05-21, 02:26:04,VALID,916.638,VALID,0,VALID,97.6788,VALID,0.107441,VALID,18.8254,VALID,108,VALID,0.851172,
2011-05-21, 02:27:04,VALID,916.643,VALID,0,VALID,97.7017,VALID,0,VALID,18.8059,VALID,108,VALID,1.01797,
2011-05-21, 02:28:04,VALID,916.642,VALID,0,VALID,97.6865,VALID,0,VALID,18.8059,VALID,108,VALID,1.13516,
2011-05-21, 02:29:04,VALID,916.602,VALID,0,VALID,97.6712,VALID,0,VALID,18.8254,VALID,108,VALID,1.23945,
2011-05-21, 02:30:04,VALID,916.595,VALID,0,VALID,97.6788,VALID,0,VALID,18.8268,VALID,108,VALID,1.0043,
2011-05-21, 02:31:04,VALID,916.577,VALID,0,VALID,97.6483,VALID,0,VALID,18.8059,VALID,108,VALID,0.9875,
2011-05-21, 02:32:04,VALID,916.539,VALID,0,VALID,97.6636,VALID,0,VALID,18.8254,VALID,108,VALID,0.748828,
2011-05-21, 02:33:04,VALID,916.535,VALID,0,VALID,97.6407,VALID,0,VALID,18.785,VALID,108,VALID,0.748828,
2011-05-21, 02:34:04,VALID,916.498,VALID,0,VALID,97.6407,VALID,0,VALID,18.8059,VALID,107,VALID,0.410156,
2011-05-21, 02:35:04,VALID,916.496,VALID,0,VALID,97.6636,VALID,0,VALID,18.8073,VALID,109,VALID,0.537109,
2011-05-21, 02:36:04,VALID,916.472,VALID,0,VALID,97.6636,VALID,0,VALID,18.8268,VALID,108,VALID,0.1375,
2011-05-21, 02:37:04,VALID,916.475,VALID,0,VALID,97.656,VALID,0,VALID,18.8672,VALID,108,VALID,0,
2011-05-21, 02:38:04,VALID,916.465,VALID,0,VALID,97.6407,VALID,0,VALID,18.8059,VALID,108,VALID,0.452734,
2011-05-21, 02:39:04,VALID,916.438,VALID,0,VALID,97.6407,VALID,0,VALID,18.7864,VALID,109,VALID,0.605859,
2011-05-21, 02:40:04,VALID,916.443,VALID,0,VALID,97.656,VALID,0,VALID,18.8073,VALID,108,VALID,0.580859,
2011-05-21, 02:41:04,VALID,916.436,VALID,0,VALID,97.6483,VALID,0,VALID,18.7878,VALID,108,VALID,0.573047,
2011-05-21, 02:42:04,VALID,916.431,VALID,0,VALID,97.656,VALID,0,VALID,18.7864,VALID,109,VALID,0.40625,
2011-05-21, 02:43:04,VALID,916.424,VALID,0,VALID,97.6483,VALID,0,VALID,18.8282,VALID,108,VALID,0.29375,
2011-05-21, 02:44:04,VALID,916.417,VALID,0,VALID,97.6483,VALID,0,VALID,18.8073,VALID,109,VALID,0,
2011-05-21, 02:45:04,VALID,916.431,VALID,0,VALID,97.656,VALID,0,VALID,18.8268,VALID,108,VALID,0.292188,
2011-05-21, 02:46:04,VALID,916.428,VALID,0,VALID,97.656,VALID,0,VALID,18.8059,VALID,108,VALID,0.599219,
2011-05-21, 02:47:04,VALID,916.424,VALID,0,VALID,97.656,VALID,0,VALID,18.7864,VALID,108,VALID,0.419922,
2011-05-21, 02:48:04,VALID,916.407,VALID,0,VALID,97.6636,VALID,0,VALID,18.7669,VALID,109,VALID,0.220313,
2011-05-21, 02:49:04,VALID,916.387,VALID,0,VALID,97.6483,VALID,0.107441,VALID,18.7669,VALID,109,VALID,0.444141,
2011-05-21, 02:50:04,VALID,916.412,VALID,0,VALID,97.6712,VALID,0.107441,VALID,18.7864,VALID,217,VALID,0.764844,
2011-05-21, 02:51:04,VALID,916.374,VALID,0,VALID,97.6788,VALID,0,VALID,18.7864,VALID,217,VALID,0.732813,
2011-05-21, 02:52:04,VALID,916.415,VALID,0,VALID,97.6636,VALID,0,VALID,18.7655,VALID,217,VALID,0.404687,
2011-05-21, 02:53:04,VALID,916.371,VALID,0,VALID,97.6712,VALID,0,VALID,18.7864,VALID,217,VALID,0.257422,
2011-05-21, 02:54:04,VALID,916.375,VALID,0,VALID,97.6712,VALID,0,VALID,18.7669,VALID,217,VALID,0.466797,
2011-05-21, 02:55:04,VALID,916.378,VALID,0,VALID,97.6788,VALID,0,VALID,18.7864,VALID,217,VALID,0.403125,
2011-05-21, 02:56:04,VALID,916.372,VALID,0,VALID,97.6788,VALID,0.107441,VALID,18.8045,VALID,217,VALID,0.427344,
2011-05-21, 02:57:04,VALID,916.376,VALID,0,VALID,97.6636,VALID,0,VALID,18.8434,VALID,217,VALID,0.438672,
2011-05-21, 02:58:04,VALID,916.371,VALID,0,VALID,97.656,VALID,0,VALID,18.9034,VALID,217,VALID,0.412109,
2011-05-21, 02:59:04,VALID,916.389,VALID,0,VALID,97.656,VALID,0,VALID,18.9229,VALID,217,VALID,0.175,
2011-05-21, 03:00:04,VALID,916.374,VALID,0,VALID,97.6636,VALID,0,VALID,18.9229,VALID,217,VALID,0,
2011-05-21, 03:01:04,VALID,916.373,VALID,0,VALID,97.6636,VALID,0.107441,VALID,18.9214,VALID,217,VALID,0.0277344,
2011-05-21, 03:02:04,VALID,916.38,VALID,0,VALID,97.6331,VALID,0,VALID,18.9424,VALID,217,VALID,0,
2011-05-21, 03:03:04,VALID,916.389,VALID,0,VALID,97.6407,VALID,0.107441,VALID,18.9409,VALID,217,VALID,0,
2011-05-21, 03:04:04,VALID,916.361,VALID,0,VALID,97.6636,VALID,0,VALID,18.9214,VALID,217,VALID,0.0917969,
2011-05-21, 03:05:04,VALID,916.379,VALID,0,VALID,97.6636,VALID,0.107441,VALID,18.9424,VALID,217,VALID,0,
2011-05-21, 03:06:04,VALID,916.398,VALID,0,VALID,97.6407,VALID,0,VALID,18.9214,VALID,217,VALID,0,
2011-05-21, 03:07:04,VALID,916.365,VALID,0,VALID,97.6407,VALID,0,VALID,18.9619,VALID,218,VALID,0,
2011-05-21, 03:08:04,VALID,916.33,VALID,0,VALID,97.6483,VALID,0,VALID,18.9619,VALID,217,VALID,0,
2011-05-21, 03:09:04,VALID,916.321,VALID,0,VALID,97.6331,VALID,0.107441,VALID,18.9019,VALID,217,VALID,0.220703,
2011-05-21, 03:10:04,VALID,916.29,VALID,0,VALID,97.6331,VALID,0.107441,VALID,18.9034,VALID,217,VALID,0.548828,
2011-05-21, 03:11:04,VALID,916.265,VALID,0,VALID,97.6255,VALID,0,VALID,18.8629,VALID,217,VALID,0.321484,
2011-05-21, 03:12:04,VALID,916.278,VALID,0,VALID,97.6331,VALID,0,VALID,18.8839,VALID,217,VALID,0.360156,
2011-05-21, 03:13:04,VALID,916.266,VALID,0,VALID,97.6407,VALID,0,VALID,18.8824,VALID,217,VALID,0.726563,
2011-05-21, 03:14:04,VALID,916.204,VALID,0,VALID,97.6407,VALID,0,VALID,18.9409,VALID,217,VALID,0.656641,
2011-05-21, 03:15:04,VALID,916.229,VALID,0,VALID,97.6483,VALID,0,VALID,18.9229,VALID,217,VALID,0.724609,
2011-05-21, 03:16:04,VALID,916.196,VALID,0,VALID,97.6407,VALID,0,VALID,18.9424,VALID,217,VALID,0.452734,
2011-05-21, 03:17:04,VALID,916.176,VALID,0,VALID,97.6178,VALID,0,VALID,18.9438,VALID,217,VALID,0.636328,
2011-05-21, 03:18:04,VALID,916.17,VALID,0,VALID,97.6483,VALID,0,VALID,18.9424,VALID,217,VALID,0.741016,
2011-05-21, 03:19:04,VALID,916.116,VALID,0,VALID,97.6483,VALID,0,VALID,18.9229,VALID,217,VALID,0.923047,
2011-05-21, 03:20:04,VALID,916.135,VALID,0,VALID,97.6407,VALID,0,VALID,18.9633,VALID,195,VALID,1.01328,
2011-05-21, 03:21:04,VALID,916.113,VALID,0,VALID,97.6102,VALID,0,VALID,18.9424,VALID,172,VALID,0.920313,
2011-05-21, 03:22:04,VALID,916.078,VALID,0,VALID,97.6407,VALID,0,VALID,18.9424,VALID,172,VALID,0.639063,
2011-05-21, 03:23:04,VALID,916.018,VALID,0,VALID,97.6331,VALID,0,VALID,18.9424,VALID,172,VALID,0.560156,
2011-05-21, 03:24:04,VALID,916.037,VALID,0,VALID,97.656,VALID,0,VALID,18.9424,VALID,172,VALID,0.937891,
2011-05-21, 03:25:04,VALID,916.009,VALID,0,VALID,97.6636,VALID,0,VALID,18.9438,VALID,172,VALID,0.793359,
2011-05-21, 03:26:04,VALID,915.987,VALID,0,VALID,97.656,VALID,0,VALID,18.9243,VALID,172,VALID,0.916016,
2011-05-21, 03:27:04,VALID,915.966,VALID,0,VALID,97.6483,VALID,0,VALID,18.9048,VALID,171,VALID,1.13281,
2011-05-21, 03:28:04,VALID,915.979,VALID,0,VALID,97.6407,VALID,0,VALID,18.9048,VALID,172,VALID,0.605078,
2011-05-21, 03:29:04,VALID,915.947,VALID,0,VALID,97.6483,VALID,0,VALID,18.8644,VALID,172,VALID,0.529297,
2011-05-21, 03:30:04,VALID,915.968,VALID,0,VALID,97.6407,VALID,0,VALID,18.8824,VALID,172,VALID,0.8125,
2011-05-21, 03:31:04,VALID,915.964,VALID,0,VALID,97.6483,VALID,0,VALID,18.8629,VALID,172,VALID,0.517969,
2011-05-21, 03:32:04,VALID,915.959,VALID,0,VALID,97.656,VALID,0,VALID,18.9034,VALID,172,VALID,0.414063,
2011-05-21, 03:33:04,VALID,915.979,VALID,0,VALID,97.6483,VALID,0.107441,VALID,18.8839,VALID,172,VALID,0.728125,
2011-05-21, 03:34:04,VALID,915.982,VALID,0,VALID,97.656,VALID,0.107441,VALID,18.8629,VALID,172,VALID,0.628516,
2011-05-21, 03:35:04,VALID,915.957,VALID,0,VALID,97.6636,VALID,0.107441,VALID,18.8824,VALID,172,VALID,0.286719,
2011-05-21, 03:36:04,VALID,915.942,VALID,0,VALID,97.6636,VALID,0,VALID,18.9034,VALID,172,VALID,0.570703,
2011-05-21, 03:37:04,VALID,915.932,VALID,0,VALID,97.656,VALID,0,VALID,18.9034,VALID,171,VALID,0.130078,
2011-05-21, 03:38:04,VALID,915.927,VALID,0,VALID,97.6636,VALID,0.107441,VALID,18.8824,VALID,171,VALID,0.510938,
2011-05-21, 03:39:04,VALID,915.907,VALID,0,VALID,97.6788,VALID,0.107441,VALID,18.9229,VALID,172,VALID,0.391016,
2011-05-21, 03:40:04,VALID,915.921,VALID,0,VALID,97.6712,VALID,0,VALID,18.9034,VALID,172,VALID,0.610937,
2011-05-21, 03:41:04,VALID,915.904,VALID,0,VALID,97.6712,VALID,0,VALID,18.8839,VALID,172,VALID,0.451562,
2011-05-21, 03:42:04,VALID,915.901,VALID,0,VALID,97.6483,VALID,0,VALID,18.9034,VALID,172,VALID,0.433984,